Date,TemperatureHighF,TemperatureAvgF,TemperatureLowF,DewpointHighF,DewpointAvgF,DewpointLowF,HumidityHigh,HumidityAvg,HumidityLow,PressureMaxIn,PressureMinIn,WindSpeedMaxMPH,WindSpeedAvgMPH,GustSpeedMaxMPH,PrecipitationSumIn
2013-1-1,33.4,24.2,19.0,33.2,16.6,9.1,99,73,59,30.29,30.12,2,0,4,0.01
2013-1-2,32.7,23.0,16.3,16.9,11.8,8.3,70,62,49,30.30,30.22,4,0,5,0.01
2013-1-3,42.4,32.0,23.4,24.7,20.3,14.6,77,62,45,30.42,30.24,11,3,18,0.02
2013-1-4,42.6,33.8,27.7,23.2,20.0,17.3,74,58,40,30.46,30.33,12,3,20,0.00
2013-1-5,44.2,37.8,29.8,31.3,24.7,19.0,68,59,50,30.34,30.13,10,2,14,0.00
2013-1-6,43.0,35.1,28.2,32.1,22.5,16.1,74,60,43,30.41,30.11,14,4,21,0.00
2013-1-7,51.4,34.6,25.9,30.4,23.0,16.1,74,63,42,30.42,30.17,8,0,13,0.00
2013-1-8,59.9,43.0,31.6,36.7,27.9,22.1,72,57,28,30.24,30.12,6,1,9,0.00
2013-1-9,59.5,51.1,45.7,45.9,36.8,30.2,86,60,34,30.49,30.19,6,2,9,0.00
2013-1-10,56.7,47.8,43.3,56.2,42.7,31.4,99,84,58,30.48,29.80,12,1,17,0.28
2013-1-11,66.2,56.5,50.9,56.4,50.0,47.8,99,80,56,29.91,29.79,12,2,17,0.01
2013-1-12,57.9,49.0,32.4,51.9,42.4,29.9,94,79,52,29.98,29.84,10,3,16,0.85
2013-1-13,32.4,26.0,20.8,30.1,18.5,11.3,92,73,56,30.38,29.93,11,1,60,0.01
2013-1-14,34.2,23.2,18.3,14.9,10.9,5.5,73,60,39,30.53,30.38,4,1,7,0.00
2013-1-15,32.7,25.3,19.2,19.6,15.7,11.7,77,67,50,30.45,30.15,4,1,7,0.00
2013-1-16,45.5,32.9,22.5,20.9,16.5,9.4,77,54,25,30.18,30.04,11,3,18,0.00
2013-1-17,43.3,36.3,30.2,29.6,22.4,17.6,79,58,40,30.51,30.15,10,2,13,0.00
2013-1-18,57.0,39.8,27.5,28.8,21.6,16.2,68,51,23,30.53,30.16,10,2,15,0.00
2013-1-19,68.0,52.6,40.5,33.0,29.1,25.6,62,43,21,30.17,29.93,22,5,33,0.00
2013-1-20,49.3,33.7,26.1,31.9,11.3,-4.0,67,41,20,30.37,30.15,10,2,20,0.00
2013-1-21,26.1,20.6,15.8,9.7,-4.3,-17.4,60,35,19,30.42,30.31,14,5,23,0.00
2013-1-22,19.6,16.6,14.2,9.1,-1.6,-13.1,63,46,27,30.51,30.38,6,1,11,0.00
2013-1-23,45.7,29.0,16.2,22.8,13.9,7.2,69,54,33,30.40,30.16,9,2,13,0.00
2013-1-24,29.5,23.6,16.9,14.1,2.2,-9.2,54,39,28,30.62,30.26,7,2,12,0.00
2013-1-25,45.5,35.2,27.1,20.2,13.9,2.0,54,41,31,30.28,30.13,12,3,19,0.00
2013-1-26,46.9,34.1,26.2,20.2,13.1,3.6,64,43,20,30.42,30.25,4,1,9,0.00
2013-1-27,49.5,37.5,29.8,49.2,32.8,15.8,99,84,53,30.34,29.98,5,1,10,0.07
2013-1-28,75.6,62.0,49.6,63.1,58.2,49.4,99,88,62,30.01,29.88,9,1,14,0.00
2013-1-29,68.7,62.6,54.0,61.8,59.1,53.1,99,89,72,29.88,29.45,11,2,18,1.30
2013-1-30,54.0,40.4,28.0,53.0,34.1,13.6,99,79,54,29.95,29.40,20,6,37,0.11
2013-1-31,33.6,25.3,12.2,25.8,10.2,-6.9,87,53,38,30.40,29.94,19,7,30,0.00
2013-2-1,30.7,19.5,9.5,9.3,-3.4,-9.5,50,36,21,30.53,30.25,14,3,22,0.00
2013-2-2,43.5,34.7,28.6,27.6,17.9,7.6,84,51,39,30.26,30.08,17,4,29,0.00
2013-2-3,37.6,32.1,28.8,31.1,20.1,8.0,95,64,30,30.21,30.03,16,3,24,0.00
2013-2-4,36.3,31.1,27.9,25.0,20.7,15.8,71,65,59,30.03,29.85,2,0,3,0.00
2013-2-12,48.6,40.5,32.5,29.4,26.7,22.7,72,58,43,30.19,29.97,3,0,4,0.00
2013-2-13,56.1,45.2,37.8,33.1,27.7,17.7,72,53,23,29.97,29.83,13,4,23,0.00
2013-2-14,57.9,47.6,40.5,33.4,30.8,26.6,71,54,30,30.09,29.84,14,5,19,0.00
2013-2-15,44.2,36.7,30.2,27.5,14.6,3.2,71,43,22,30.30,30.09,8,4,13,0.00
2013-2-16,38.7,29.8,22.8,12.6,6.8,-3.2,57,40,18,30.30,30.19,10,3,16,0.00
2013-2-17,33.4,28.2,26.6,14.5,11.6,8.7,55,49,44,30.22,30.18,3,0,4,0.00
2013-2-18,57.0,48.5,39.4,49.6,40.9,29.5,94,75,65,29.94,29.59,15,3,25,0.09
2013-2-19,35.6,30.0,25.7,12.4,7.8,1.0,51,39,25,30.32,30.07,17,6,31,0.00
2013-2-20,28.0,23.9,19.2,9.4,6.0,2.3,54,46,36,30.44,30.31,8,1,11,0.00
2013-2-21,32.4,27.3,23.2,30.6,19.4,9.2,93,73,54,30.35,29.85,4,1,8,0.00
2013-2-22,36.5,32.9,26.2,33.9,25.9,15.7,98,77,54,30.11,29.83,15,4,24,0.19
2013-2-23,40.8,29.5,21.0,19.7,16.6,14.0,76,59,39,30.09,30.00,9,2,16,0.02
2013-2-24,52.5,36.5,24.3,27.1,23.0,16.6,81,60,34,30.15,30.05,3,0,4,0.00
2013-2-25,48.7,39.7,33.4,33.3,29.2,25.1,87,67,49,30.09,29.62,8,1,11,0.12
2013-2-26,45.1,37.6,34.3,44.3,36.1,31.2,99,94,87,29.70,29.38,11,2,20,0.28
2013-2-27,35.4,33.7,32.2,31.4,29.8,26.6,91,86,79,29.91,29.69,15,6,24,0.14
2013-2-28,35.1,33.4,32.2,29.0,27.4,25.8,86,79,70,30.13,29.91,10,4,15,0.02
2013-3-1,34.7,31.6,28.9,28.7,26.4,22.0,89,81,66,30.22,30.09,7,3,11,0.06
2013-3-2,36.0,29.7,26.2,22.0,16.2,12.2,75,58,39,30.27,30.21,10,4,14,0.01
2013-3-3,41.9,31.8,21.4,22.7,16.2,11.8,71,53,32,30.24,30.05,6,1,8,0.00
2013-3-4,57.6,44.4,35.6,39.3,30.1,22.7,69,57,40,30.06,29.78,6,2,10,0.00
2013-3-5,45.3,36.2,32.2,33.7,27.3,16.9,92,71,48,30.15,29.81,23,5,36,0.20
2013-3-6,39.9,33.8,29.8,24.5,20.3,18.2,72,58,47,30.38,30.14,14,4,24,0.04
2013-3-7,53.6,36.8,26.6,29.1,24.0,18.2,76,61,36,30.44,30.33,5,1,8,0.00
2013-3-8,59.9,43.5,31.5,33.8,28.7,24.5,77,58,32,30.45,30.22,4,1,6,0.00
2013-3-9,71.8,53.7,41.7,41.6,35.8,29.3,85,53,28,30.22,29.83,4,1,9,0.05
2013-3-10,58.8,54.0,46.9,53.7,49.2,40.7,99,85,51,29.84,29.67,16,2,25,0.61
2013-3-11,46.9,36.9,33.6,44.7,30.1,21.0,93,77,54,30.02,29.74,19,7,30,0.00
2013-3-12,50.9,38.4,30.7,25.5,22.0,15.6,73,53,25,30.23,30.00,18,5,27,0.00
2013-3-13,43.5,34.9,28.8,24.4,15.6,10.2,78,46,26,30.44,30.23,11,4,23,0.00
2013-3-14,54.7,40.1,31.1,33.1,25.0,15.7,70,55,37,30.42,30.11,8,1,11,0.00
2013-3-15,74.7,54.0,35.6,48.9,39.1,28.5,84,60,32,30.12,29.69,6,0,9,0.00
2013-3-16,66.0,49.3,39.9,48.5,40.4,35.8,92,73,44,30.08,29.67,12,3,19,0.02
2013-3-17,40.1,37.0,35.2,37.3,32.9,27.8,99,85,74,30.12,29.80,6,1,12,0.21
2013-3-18,52.2,42.4,37.2,39.3,34.1,19.1,99,76,39,30.04,29.71,19,4,27,0.01
2013-3-19,48.6,39.8,32.5,20.2,11.2,3.8,55,33,18,30.24,30.04,14,3,19,0.00
2013-3-20,39.6,32.8,28.2,29.0,13.6,0.0,76,47,23,30.30,30.13,13,5,19,0.00
2013-3-21,41.7,30.7,23.0,16.4,9.0,2.6,50,40,24,30.15,30.01,5,1,8,0.00
2013-3-22,45.3,38.1,32.9,25.0,21.3,16.2,56,51,39,30.08,30.00,4,0,6,0.00
2013-3-23,39.6,39.3,39.0,24.2,23.2,22.8,55,52,51,30.05,30.03,1,0,3,0.00
2013-3-31,69.8,63.7,54.1,42.3,35.2,26.9,52,36,21,29.97,29.86,11,4,22,0.00
2013-4-1,54.1,44.6,38.7,34.0,20.3,10.1,62,40,20,30.26,29.97,9,3,15,0.00
2013-4-2,54.0,41.5,32.7,20.6,13.8,5.1,54,34,18,30.38,30.26,6,1,10,0.00
2013-4-3,61.0,45.7,34.9,23.3,19.6,13.4,52,37,19,30.42,30.27,4,1,9,0.00
2013-4-4,68.0,51.2,38.7,24.7,19.9,-0.4,56,32,13,30.27,30.05,4,1,8,0.00
2013-4-5,73.6,57.1,45.7,35.7,28.1,18.3,56,35,13,30.20,30.07,6,1,9,0.00
2013-4-6,75.6,63.6,33.4,42.7,35.8,13.9,58,38,18,30.07,29.49,16,3,20,0.00
2013-4-7,84.4,68.5,58.6,61.1,49.4,42.7,95,54,28,29.95,29.82,11,2,16,1.38
2013-4-8,72.0,64.2,61.9,59.3,56.4,54.7,82,76,61,29.85,29.75,16,4,21,0.01
2013-4-12,45.7,44.7,43.0,31.8,30.9,29.2,64,58,53,30.04,29.95,14,4,18,0.00
2013-4-13,68.7,51.0,37.6,41.6,33.0,29.5,80,53,24,30.10,29.93,15,3,21,0.00
2013-4-14,82.9,64.8,49.6,55.7,46.5,39.1,75,55,23,29.93,29.63,13,2,23,0.00
2013-4-15,72.0,63.9,54.5,62.5,57.0,51.0,95,79,64,29.92,29.76,8,2,13,0.14
2013-4-16,54.7,48.9,46.0,51.8,47.6,45.2,99,95,87,30.17,29.92,9,1,13,0.48
2013-4-17,64.8,52.9,50.0,61.9,51.5,47.5,99,95,91,30.15,30.01,3,0,8,0.00
2013-4-20,67.5,55.7,47.5,64.5,24.0,18.0,90,31,18,30.36,30.00,6,1,13,1.36
2013-4-21,71.2,55.0,43.7,39.9,35.0,30.7,61,48,31,30.44,30.27,4,1,7,0.00
2013-4-22,78.1,61.9,47.3,46.7,38.8,34.9,64,45,22,30.30,30.01,5,1,9,0.00
2013-4-23,64.2,53.9,40.6,59.0,48.7,40.2,99,84,52,30.05,29.90,11,2,17,0.94
2013-4-24,57.6,46.0,38.3,40.2,31.6,17.1,99,64,22,30.28,30.01,13,4,17,0.11
2013-4-25,71.6,54.0,41.7,35.1,28.3,17.0,66,41,17,30.39,30.26,11,3,17,0.00
2013-4-26,61.2,54.3,50.0,48.8,43.2,34.6,81,66,48,30.41,30.28,11,2,17,0.00
2013-4-27,55.4,52.9,50.4,54.4,51.6,46.2,99,95,81,30.32,29.95,3,0,5,0.18
2013-4-28,58.5,55.2,52.5,53.3,51.7,49.1,98,88,75,29.99,29.91,11,2,14,0.02
2013-4-29,84.4,64.9,48.6,61.6,55.7,48.3,99,76,43,29.97,29.81,7,1,9,0.00
2013-4-30,91.0,75.1,63.0,63.1,57.8,43.3,86,59,20,29.99,29.84,9,1,12,0.00
2013-5-1,90.7,75.5,62.4,60.2,56.4,48.0,80,54,30,30.11,29.98,7,1,9,0.00
2013-5-2,72.3,63.1,45.9,62.7,55.4,45.1,99,77,53,30.18,30.09,10,3,19,0.52
2013-5-3,45.9,42.7,41.2,45.1,42.3,40.9,99,98,97,30.12,29.84,11,3,16,2.26
2013-5-4,55.0,46.5,40.3,46.2,42.4,39.6,99,86,63,30.03,29.86,6,1,9,0.00
2013-5-5,62.2,54.2,47.1,59.0,52.2,45.0,99,93,81,30.03,29.91,6,1,8,0.11
2013-5-6,69.6,62.4,54.5,56.5,54.4,51.8,97,76,57,30.01,29.93,5,1,11,0.00
2013-5-7,81.7,70.1,61.3,59.5,55.6,48.9,81,62,34,30.07,29.99,3,0,6,0.00
2013-5-8,85.1,71.2,59.2,58.1,53.1,40.5,84,57,23,30.08,29.99,12,1,17,0.00
2013-5-9,79.7,71.2,66.0,66.5,60.0,54.6,88,69,43,30.02,29.86,17,2,30,0.06
2013-5-10,68.2,63.1,56.5,62.7,58.2,51.4,95,84,72,30.03,29.87,11,3,17,0.06
2013-5-11,70.2,60.5,53.6,52.5,43.1,26.1,90,58,24,30.19,30.01,14,4,21,0.00
2013-5-12,64.6,55.0,45.1,33.5,25.0,17.1,59,34,18,30.26,30.07,11,2,20,0.00
2013-5-13,79.7,61.6,44.4,44.6,35.1,19.4,75,42,18,30.26,30.06,8,1,11,0.00
2013-5-14,95.2,77.3,57.7,55.0,49.1,43.3,75,42,20,30.06,29.83,16,5,28,0.00
2013-5-15,93.4,82.8,72.7,65.3,58.6,46.1,64,45,28,29.98,29.84,16,6,25,0.00
2013-5-16,87.8,76.0,70.2,68.9,62.8,53.7,79,65,37,29.98,29.89,10,2,15,0.00
2013-5-17,82.4,73.4,67.6,68.1,63.8,59.1,86,72,58,30.00,29.93,4,0,5,0.00
2013-5-18,90.9,76.1,65.5,67.8,65.4,62.1,97,73,41,30.04,29.90,4,0,6,0.00
2013-5-19,95.9,81.6,71.1,74.8,68.8,61.7,88,67,44,29.94,29.73,10,1,16,0.00
2013-5-20,82.2,74.0,64.2,72.0,67.4,61.2,99,81,61,29.94,29.71,17,2,28,1.59
2013-5-21,82.2,71.5,64.6,67.7,64.0,59.3,99,79,50,29.85,29.73,15,3,22,0.02
2013-5-22,78.1,69.9,64.8,64.6,58.1,51.8,94,68,42,29.91,29.70,17,5,28,0.00
2013-5-23,66.2,63.2,58.1,60.5,54.8,49.5,89,74,63,30.26,29.91,14,3,21,0.02
2013-5-24,79.2,62.0,49.8,51.6,40.3,28.7,85,50,20,30.43,30.25,4,0,8,0.00
2013-5-25,75.6,64.8,55.0,57.3,49.8,41.4,78,59,44,30.38,30.15,3,0,5,0.00
2013-5-26,89.8,72.7,58.6,67.9,59.3,50.5,78,64,43,30.22,30.02,6,1,10,0.00
2013-5-27,84.6,73.8,66.4,72.7,64.6,58.6,97,74,57,30.06,29.77,14,3,27,0.51
2013-5-28,86.9,76.7,68.9,71.8,66.8,62.8,93,73,48,29.93,29.84,15,2,25,0.02
2013-5-29,89.8,80.1,70.5,68.1,64.2,59.8,81,60,39,30.00,29.84,15,2,22,0.00
2013-5-30,86.2,76.9,65.3,72.8,68.7,62.4,99,76,60,29.96,29.82,22,2,30,0.60
2013-5-31,81.9,72.3,64.8,73.3,67.9,63.4,99,87,71,29.94,29.77,13,2,20,1.72
2013-6-1,80.4,70.1,65.5,68.1,64.1,55.9,99,83,53,29.93,29.76,14,3,25,0.20
2013-6-2,68.4,65.2,61.5,59.0,57.1,53.9,82,75,68,30.05,29.91,9,2,15,0.00
2013-6-3,80.2,66.9,59.5,54.1,51.1,44.3,79,59,38,30.13,30.01,8,1,11,0.00
2013-6-4,81.0,68.6,57.4,58.9,54.5,50.2,82,62,41,30.12,30.02,5,0,7,0.00
2013-6-5,88.7,72.6,63.3,65.0,60.5,53.5,92,69,31,30.05,29.88,5,1,10,0.07
2013-6-6,79.5,72.3,65.7,64.9,60.2,52.3,95,68,43,29.91,29.85,10,3,13,0.01
2013-6-7,78.4,69.4,62.2,60.7,57.2,54.6,89,66,46,29.95,29.90,9,2,11,0.00
2013-6-8,85.5,73.0,61.5,61.1,55.5,44.7,89,58,29,30.01,29.93,9,1,14,0.00
2013-6-9,80.4,70.4,66.0,65.3,61.6,58.4,90,74,54,29.99,29.83,20,1,34,0.06
2013-6-10,82.2,72.3,64.6,64.6,62.7,59.6,97,74,48,29.96,29.81,9,2,15,0.09
2013-6-11,93.4,80.7,66.2,73.7,67.5,62.2,93,66,42,30.01,29.88,11,2,17,0.00
2013-6-12,97.3,87.5,78.1,74.1,70.7,68.4,79,59,40,29.99,29.77,17,5,32,0.00
2013-6-13,88.5,78.9,70.7,71.6,63.3,56.0,86,60,34,30.02,29.78,12,3,24,0.00
2013-6-14,89.8,77.4,66.7,61.3,58.5,55.9,79,54,34,30.12,29.98,6,0,8,0.00
2013-6-15,91.2,78.6,70.9,70.6,65.1,60.9,95,65,45,30.13,29.95,12,2,18,0.53
2013-6-16,89.4,76.8,70.2,74.7,70.9,68.3,96,83,57,30.07,29.94,8,1,12,0.07
2013-6-17,89.1,75.2,68.0,75.3,70.6,62.8,98,87,58,29.98,29.88,12,0,20,1.19
2013-6-18,90.5,77.2,65.3,70.2,63.7,55.0,99,68,31,30.00,29.92,9,2,12,0.01
2013-6-19,93.0,78.6,68.2,67.2,64.1,59.6,91,64,38,30.10,30.00,4,0,6,0.00
2013-6-20,95.2,83.1,72.5,70.9,67.1,63.0,83,60,37,30.15,30.05,8,1,11,0.00
2013-6-21,94.6,84.6,75.0,72.5,70.8,69.1,88,65,46,30.14,30.01,9,2,16,0.00
2013-6-22,90.0,78.5,70.7,78.0,69.8,64.7,90,75,46,30.12,30.03,15,2,23,0.01
2013-6-23,92.3,75.9,69.3,74.7,69.2,10.7,99,81,50,30.10,29.98,11,1,17,0.60
2013-6-24,94.3,80.9,68.7,76.8,70.7,66.7,99,75,42,30.11,29.96,10,2,14,0.01
2013-6-25,95.0,85.6,77.4,74.6,72.3,68.4,84,66,42,30.01,29.80,12,3,21,0.00
2013-6-26,94.6,81.6,75.4,76.2,74.2,70.9,96,79,51,29.91,29.74,15,3,24,0.50
2013-6-27,96.3,85.3,76.8,75.9,69.0,62.3,89,61,34,29.92,29.80,11,3,16,0.00
2013-6-28,90.0,83.1,76.1,73.1,63.7,52.1,88,56,30,29.89,29.73,14,4,21,0.00
2013-6-29,81.9,73.8,66.4,66.2,61.7,58.2,88,67,48,29.76,29.67,14,3,26,0.12
2013-6-30,77.7,70.5,66.4,70.8,63.7,60.4,92,79,63,29.95,29.75,6,2,11,0.02
2013-7-1,81.9,73.3,65.5,64.3,55.6,50.6,82,55,39,30.01,29.93,8,2,13,0.00
2013-7-2,72.3,65.2,61.9,63.1,60.6,54.1,96,86,53,30.07,29.10,5,2,9,0.92
2013-7-3,86.9,72.7,64.0,63.7,61.3,58.0,93,70,40,30.12,30.03,7,1,10,0.01
2013-7-4,90.7,77.8,65.8,69.3,61.4,56.7,97,60,33,30.14,30.03,22,0,49,0.00
2013-7-5,92.1,78.6,68.5,70.9,66.7,60.0,96,70,37,30.11,30.02,5,0,8,0.00
2013-7-6,93.6,79.4,71.6,71.3,67.3,58.3,90,69,39,30.09,29.99,10,1,17,0.00